Regional Weather Roundup
Issued by NWS Little Rock, AR

Home | Current Version | Previous Version | Graphics & Text | Print | Product List | Glossary On
Versions: 1 2 3 4 5 6 7 8 9 10 11 12 13 14 15 16 17 18 19 20 21 22 23 24 25 26 27 28 29 30 31 32 33 34 35 36 37 38 39 40 41 42 43 44 45 46 47 48
000
ASUS44 KLZK 022305
RWRLZK

WEATHER ROUNDUP FOR ARKANSAS
NATIONAL WEATHER SERVICE LITTLE ROCK AR
500 PM CST MON MAR 02 2015

NOTE: "FAIR" INDICATES FEW OR NO CLOUDS BELOW 12,000 FEET WITH NO
SIGNIFICANT WEATHER AND/OR OBSTRUCTIONS TO VISIBILITY.

ARZ001-003-010-029-030000-
NORTHWEST ARKANSAS

CITY           SKY/WX    TMP DP  RH WIND       PRES   REMARKS
FAYETTEVILLE   CLOUDY    38  31  76 CALM      30.25R
FORT SMITH     CLOUDY    40  31  70 E7        30.27F
HARRISON       CLOUDY    34  25  69 E10       30.25F WCI  26
BENTONVILLE    CLOUDY    37  27  65 SE5       30.25F
ROGERS         CLOUDY    36  27  69 SE6       30.25S
SILOAM SPGS    CLOUDY    37  28  70 CALM      30.25F
HIGHFILL       CLOUDY    37  29  72 E3        30.24R
SPRINGDALE     CLOUDY    37  28  70 E5        30.26S
$$

ARZ004-005-016-030000-
NORTH CENTRAL ARKANSAS

CITY           SKY/WX    TMP DP  RH WIND       PRES   REMARKS
BATESVILLE     CLOUDY    37  21  52 E8        30.33F
FLIPPIN        CLOUDY    37  19  48 E6        30.29F
MTN HOME       CLOUDY    36  20  52 SE8       30.28F
$$

ARZ040-041-030000-
WEST CENTRAL ARKANSAS

CITY           SKY/WX    TMP DP  RH WIND       PRES   REMARKS
MENA           CLOUDY    37  36  93 E3        30.24S
MOUNT IDA      CLOUDY    36  33  89 CALM      30.23F
$$

ARZ009-017-025-026-028-030000-
NORTHEAST ARKANSAS

CITY           SKY/WX    TMP DP  RH WIND       PRES   REMARKS
CORNING        MOCLDY    36  23  60 NE9       30.37F
JONESBORO      CLOUDY    34  26  72 NE9       30.35F WCI  27
NEWPORT        CLOUDY    35  28  76 NE14      30.35F WCI  26
WALNUT RIDGE   CLOUDY    34  23  64 NE9       30.36F WCI  26
BLYTHEVILLE    CLOUDY    37  29  72 N9        30.35F
NW BLYTHEVILLE CLOUDY    37  27  65 N7        30.37S
$$

ARZ022-023-033-042-044-030000-
CENTRAL ARKANSAS

CITY           SKY/WX    TMP DP  RH WIND       PRES   REMARKS
LITTLE ROCK    CLOUDY    37  30  75 E9        30.32F
N LITTLE ROCK  CLOUDY    37  32  84 NE9       30.32F
JACKSONVILLE   CLOUDY    37  29  72 E13       30.30F
SEARCY         CLOUDY    37  28  70 NE13      30.34F
HOT SPRINGS    CLOUDY    38  32  79 E12       30.26F
RUSSELLVILLE   CLOUDY    40  26  57 E5        30.26F
CLINTON        CLOUDY    39  21  48 NE5       30.31F
$$

ARZ036-030000-
EAST ARKANSAS

CITY           SKY/WX    TMP DP  RH WIND       PRES   REMARKS
WEST MEMPHIS   CLOUDY    40  35  83 NE8       30.32F
$$

ARZ050-053-066-070-073-030000-
SOUTHWEST ARKANSAS

CITY           SKY/WX    TMP DP  RH WIND       PRES   REMARKS
ARKADELPHIA    MOCLDY    38  36  92 E8        30.28F
CAMDEN         CLOUDY    37  32  81 MISG      30.29F FOG
TEXARKANA      CLOUDY    37  36  96 E6        30.25F FOG
EL DORADO      CLOUDY    37  36  96 NE8       30.28F FOG
DE QUEEN       CLOUDY    39  36  89 E6        30.25F FOG
$$

ARZ056-057-069-030000-
SOUTHEAST ARKANSAS

CITY           SKY/WX    TMP DP  RH WIND       PRES   REMARKS
PINE BLUFF     CLOUDY    36  35  96 NE10      30.31F
STUTTGART      CLOUDY    37  30  75 NE12      30.33S
MONTICELLO     CLOUDY    37  35  92 NE9       30.29F FOG

$$





USA.gov is the U.S. government's official web portal to all federal, state and local government web resources and services.